User: anonymous   Login
Location: Unspecified
(0.0000°N, 0.0000°E)
Time: 00:05:10
(UTC+00:00)
Language:

STARLINK-3902 - Orbit

View from above orbital plane
View from above orbital plane
View from above satellite
View from above satellite

Ground track
Ground track

The orbit is defined by the following mean orbital elements,

1 52487U          26145.49339187 +.00000000 +00000-0 +62605-3 0 00003
2 52487  53.2132  64.4401 0001445 102.7473 257.3681 15.08808881    00
Epoch (UTC): 25 May 2026 11:50:29
Eccentricity: 0.0001445
inclination: 53.2132°
perigee height: 539 km
apogee height: 541 km
right ascension of ascending node: 64.4401°
argument of perigee: 102.7473°
revolutions per day: 15.08808881
mean anomaly at epoch: 257.3681°

The dashed part of the orbit path shows where the satellite is in the earth's shadow,  

DLR